Location: Unspecified
(47.4992°N, 121.7766°W)
Time: 18:12:43
(UTC-08:00)

Cosmos 2058 - Pass Details

Date: 05 February 2021
Orbit: 561 x 584 km, 82.5° (Epoch: 05 March)

Event Time Altitude Azimuth Distance (km) Brightness Sun altitude
Rises 20:03:24 0° 235° (SW) 2,780 7.1 -28.6°
Reaches altitude 10° 20:06:29 10° 260° (W) 1,883 6.4 -29.1°
Maximum altitude 20:08:47 14° 294° (WNW) 1,614 6.0 -29.5°
Drops below altitude 10° 20:11:06 10° 328° (NNW) 1,883 6.0 -29.9°
Sets 20:14:12 0° 354° (N) 2,781 6.6 -30.4°
